EW2958 Weather Reports


Display with metric or nautical units.
time (UTC)temp
F
wind
direction
speed
MPH
gust
MPH
rain 1hr
in
rain 24hr
in
rain mn
in
humidity
%
barometer
mb
20260504000156 60 342 10.0 20.0 0.00 0.24 0.00 61 1009.3
20260503234554 60 352 7.0 17.0 0.00 0.27 0.00 62 1009.4
20260503233050 59 45 8.0 17.0 0.00 0.27 0.00 65 1009.4
20260503231546 58 41 11.0 18.0 0.00 0.27 0.00 66 1009.5
20260503230047 58 63 8.0 16.0 0.00 0.27 0.00 68 1009.7
20260503224538 57 46 8.0 15.0 0.00 0.31 0.00 69 1009.6
20260503223037 55 23 8.0 15.0 0.00 0.31 0.00 71 1009.7
20260503221534 54 31 7.0 13.0 0.00 0.31 0.00 73 1009.8
20260503220045 53 32 6.0 11.0 0.00 0.31 0.00 74 1009.8
20260503214533 53 37 6.0 11.0 0.00 0.31 0.00 75 1009.8
20260503213132 52 3 8.0 15.0 0.00 0.31 0.00 75 1009.7
20260503211531 52 14 8.0 14.0 0.00 0.31 0.00 75 1009.7
20260503210029 53 339 7.0 11.0 0.00 0.31 0.00 74 1009.7
20260503204527 53 338 5.0 11.0 0.00 0.31 0.00 73 1009.6
20260503203030 53 2 6.0 12.0 0.00 0.31 0.00 72 1009.4
20260503201524 53 45 7.0 16.0 0.00 0.31 0.00 71 1009.3
20260503200021 52 360 7.0 11.0 0.00 0.31 0.00 72 1009.3
20260503194522 53 30 4.0 10.0 0.00 0.31 0.00 69 1009.4
20260503193017 54 25 3.0 9.0 0.00 0.31 0.00 69 1009.4
20260503191520 53 48 5.0 11.0 0.00 0.31 0.00 70 1009.5
20260503190013 52 360 3.0 8.0 0.00 0.31 0.00 72 1009.6
20260503184510 51 25 2.0 5.0 0.00 0.31 0.00 74 1009.8
20260503183007 53 68 1.0 6.0 0.00 0.31 0.00 71 1009.9
20260503181505 52 18 3.0 8.0 0.00 0.31 0.00 71 1009.8
20260503180008 53 71 5.0 10.0 0.00 0.31 0.00 71 1010.0
20260503174600 52 13 4.0 9.0 0.00 0.31 0.00 72 1010.0
20260503173102 52 46 2.0 7.0 0.00 0.31 0.00 73 1010.2
20260503171554 53 66 2.0 9.0 0.00 0.31 0.00 70 1010.2
20260503081615 60 39 3.0 8.0 0.00 0.31 0.31 67 1009.9
20260503080108 60 342 4.0 9.0 0.00 0.31 0.31 66 1009.9
20260503071549 63 319 3.0 9.0 0.00 0.31 0.31 60 1009.4
20260503054551 65 268 7.0 16.0 0.00 0.31 0.31 57 1009.4
20260503053043 65 291 9.0 16.0 0.00 0.31 0.31 57 1009.3
20260503051540 64 276 5.0 16.0 0.00 0.31 0.31 61 1009.3
20260503050041 60 302 3.0 11.0 0.00 0.31 0.31 88 1009.4
20260503044542 58 26 6.0 16.0 0.00 0.31 0.31 88 1009.1
20260503043042 58 300 7.0 12.0 0.00 0.31 0.31 88 1009.1
20260503041543 59 344 3.0 10.0 0.00 0.31 0.31 91 1009.1
20260503040045 58 306 4.0 10.0 0.00 0.31 0.31 91 1009.2
20260503034545 57 327 6.0 11.0 0.00 0.31 0.31 92 1009.3
20260503033042 56 323 4.0 10.0 0.01 0.31 0.31 92 1009.3
20260503031502 56 359 5.0 10.0 0.01 0.31 0.31 91 1009.4
20260503030113 56 338 5.0 13.0 0.01 0.31 0.31 91 1009.5
20260503024624 58 298 3.0 12.0 0.02 0.31 0.31 92 1009.3
20260503023105 58 319 1.0 9.0 0.11 0.30 0.30 91 1009.5
20260503021601 57 269 6.0 11.0 0.17 0.30 0.30 91 1009.7
20260503020055 57 267 4.0 14.0 0.17 0.30 0.30 90 1009.5
20260503014554 57 269 8.0 18.0 0.18 0.28 0.28 88 1009.7
20260503013050 63 265 3.0 6.0 0.08 0.19 0.19 86 1009.4
20260503011555 63 359 3.0 8.0 0.06 0.13 0.13 85 1009.3
20260503010048 63 347 2.0 5.0 0.06 0.13 0.13 85 1009.3
20260503004547 63 329 4.0 8.0 0.04 0.11 0.11 84 1009.3
20260503003048 63 13 5.0 10.0 0.04 0.11 0.11 84 1009.0
20260503001557 63 4 7.0 15.0 0.01 0.08 0.08 82 1009.3